Regional Weather Roundup
Issued by NWS Newport/Morehead, NC

Current Version | Previous Version | Graphics & Text | Print | Product List | Glossary Off
Versions: 1 2 3 4 5 6 7 8 9 10 11 12 13 14 15 16 17 18 19 20 21 22 23 24 25 26 27 28 29 30 31 32 33 34 35 36 37 38 39 40 41 42 43 44 45 46 47 48 49 50

000
ASUS42 KMHX 041113
RWRMHX
WEATHER ROUNDUP FOR EASTERN NORTH CAROLINA
NATIONAL WEATHER SERVICE NEWPORT/MOREHEAD CITY NC
700 AM EDT MON MAY 04 2015

NOTE: "FAIR" INDICATES FEW OR NO CLOUDS BELOW 12,000 FEET
WITH NO SIGNIFICANT WEATHER AND/OR OBSTRUCTIONS TO VISIBILITY

NCZ015>017-031-032-045>047-102-103-041200-
NORTH COAST

CITY           SKY/WX    TMP DP  RH WIND       PRES   REMARKS
EDENTON        PTCLDY    52  50  92 CALM      30.29R
ELIZABETH CITY CLEAR     54  49  83 CALM      30.29R
KITTY HAWK     SUNNY     61  54  78 W6        30.28R
MANTEO         CLEAR     60  53  77 NW3       30.29R

$$

NCZ045>047-081-094-103-104-041200-
CENTRAL COAST

CITY           SKY/WX    TMP DP  RH WIND       PRES   REMARKS
FRISCO         CLEAR     55  55 100 NW3       30.30R
SWANQUARTER      N/A     57 N/A N/A CALM      30.27R

$$

NCZ095-097-098-100-101-041200-
SOUTHERN COAST

CITY           SKY/WX    TMP DP  RH WIND       PRES   REMARKS
BEAUFORT       CLEAR     55  55 100 CALM      30.30R
CEDAR ISLAND     N/A     63 N/A N/A N2        30.33R
JACKSONVILLE   CLEAR     51  50  96 CALM      30.29R
PINEY ISLAND   SUNNY    N/A N/A N/A SW5       30.29R
WILMINGTON     CLEAR     52  50  93 CALM      30.30R


$$

NCZ011>013-027>030-043-044-078>080-089-090>093-098-041200-
COASTAL PLAIN

CITY           SKY/WX    TMP DP  RH WIND       PRES   REMARKS
AHOSKIE        CLOUDY    53  49  87 CALM      30.29R
CLINTON        MOCLDY    51  51 100 CALM      30.30R
ELIZABETHTOWN  CLEAR     52  52  99 CALM      30.29R
GOLDSBORO      CLOUDY    53  51  91 CALM      30.27R
GREENVILLE     MOCLDY    52  52 100 CALM      30.29R
HAVELOCK       CLEAR     51  48  89 CALM      30.31R
KENANSVILLE    CLEAR     47  46  98 CALM      30.31R
KINSTON        PTCLDY    50  50 100 CALM      30.30R
NEW BERN       CLEAR     51  48  89 CALM      30.31R
RICHLANDS      CLEAR     46  43  87 CALM      30.30R
ROCKY MOUNT    MOCLDY    52  49  89 CALM      30.28R
WASHINGTON       N/A     53  50  90 CALM      30.29R
WHITEVILLE     CLEAR     52  50  93 CALM      30.29R

$$

AMZ130-135-150-152-154-156-158-170-250-252-270-ANZ085-086-088-633-658-670-041200-
MARINE OBSERVATIONS

STATION/POSITION TIME  TEMP    WIND        PRES    WAVE   SWELL
                       AIR SEA DIR/SP/G            HT/PER HT/PER
                 (UTC) (F)     (DEG/KT/KT) (MB)    (FT/S) (FT/S)
CHESAPEAKE LIGHT 1100   63     270/ 13/ 13 1025.7
64 E VA BEACH    1050   60 60  260/  8/ 12 1024.8    4/10   3/10
DUCK             1000   62 55  250/  5/  6 1023.6
2 E DUCK         1011      56                N/A     3/13   2/13
OREGON INLET     1000   61 62  260/  3/  4 1024.6
13E OREGON INLT  1100      54                N/A     3/11   2/11
HATTERAS CG      1000   63 62  220/  2/  4 1024.5
DIAMOND BUOY     1050   65     320/  6/  6 1025.7    5/10   5/10
CAPE LOOKOUT     1100   67     290/  3/  3 1025.6
BEAUFORT LAB     1000   61 65   CALM  /  2 1024.0
27 SE WRIGHTSVLE 1000   68 71  280/  2/  4   N/A
5 SE WRIGHTSVLE  1008   66 66   80/  2/  4 1024.9
225 S CAPE HAT   1050   68 69   60/ 10/ 14 1025.8    6/11   5/11
41 SE CHARLESTON 1050   72 74  110/  4/  6 1024.6    3/11   2/11

$$


USA.gov is the U.S. government's official web portal to all federal, state and local government web resources and services.